AV279 Weather Reports


Display with metric or nautical units.
time (UTC)temp
F
wind
direction
speed
MPH
gust
MPH
rain 1hr
in
rain 24hr
in
rain mn
in
humidity
%
barometer
mb
20260509211819 55 23 2.0 4.0 0.00 0.00 0.00 71 1015.9
20260509210841 56 45 3.0 5.0 0.00 0.00 0.00 71 1015.9
20260509205919 56 45 2.0 4.0 0.00 0.00 0.00 71 1015.9
20260509204819 56 23 2.0 4.0 0.00 0.00 0.00 71 1015.7
20260509203819 56 23 4.0 7.0 0.00 0.00 0.00 71 1015.7
20260509202839 56 23 4.0 8.0 0.00 0.00 0.00 72 1015.7
20260509201839 56 23 4.0 5.0 0.00 0.00 0.00 72 1015.4
20260509200819 56 45 3.0 5.0 0.00 0.00 0.00 72 1015.6
20260509195830 56 45 3.0 5.0 0.00 0.00 0.00 71 1015.6
20260509194819 57 23 3.0 7.0 0.00 0.00 0.00 71 1015.5
20260509193819 57 0 5.0 8.0 0.00 0.00 0.00 71 1015.5
20260509192819 57 23 4.0 7.0 0.00 0.00 0.00 71 1015.4
20260509191819 58 315 3.0 8.0 0.00 0.00 0.00 70 1015.4
20260509190819 58 45 3.0 6.0 0.00 0.00 0.00 69 1015.2
20260509190024 58 23 4.0 6.0 0.00 0.00 0.00 68 1015.2
20260509185150 59 45 5.0 8.0 0.00 0.00 0.00 68 1015.4
20260509184121 59 23 4.0 7.0 0.00 0.00 0.00 67 1015.3
20260509183139 59 45 6.0 9.0 0.00 0.00 0.00 67 1015.3
20260509182119 60 23 4.0 8.0 0.00 0.00 0.00 66 1015.2
20260509181140 60 23 3.0 5.0 0.00 0.00 0.00 65 1015.2
20260509180119 60 23 5.0 10.0 0.00 0.00 0.00 64 1015.2
20260509175140 61 45 7.0 10.0 0.00 0.00 0.00 65 1015.1
20260509174119 61 23 4.0 9.0 0.00 0.00 0.00 64 1015.0
20260509173119 61 0 7.0 17.0 0.00 0.00 0.00 64 1014.9
20260509172119 62 0 9.0 14.0 0.00 0.00 0.00 63 1015.0
20260509171130 62 45 5.0 9.0 0.00 0.00 0.00 62 1015.0
20260509170151 63 23 8.0 15.0 0.00 0.00 0.00 60 1015.0
20260509165130 63 45 7.0 16.0 0.00 0.00 0.00 61 1014.9
20260509164130 63 45 6.0 11.0 0.00 0.00 0.00 61 1015.1
20260509163316 63 23 5.0 9.0 0.00 0.00 0.00 61 1015.0
20260509162919 63 23 6.0 12.0 0.00 0.00 0.00 61 1015.0
20260509162132 64 0 5.0 9.0 0.00 0.00 0.00 61 1015.0
20260509161630 64 45 4.0 7.0 0.00 0.00 0.00 60 1015.1
20260509160629 64 23 5.0 10.0 0.00 0.00 0.00 58 1015.2
20260509155639 65 0 6.0 16.0 0.00 0.00 0.00 55 1015.1
20260509154711 65 23 9.0 12.0 0.00 0.00 0.00 54 1015.1
20260509153629 65 45 6.0 9.0 0.00 0.00 0.00 53 1015.2
20260509152619 65 45 9.0 12.0 0.00 0.00 0.00 54 1015.3
20260509151711 66 0 6.0 12.0 0.00 0.00 0.00 54 1015.3
20260509150618 66 23 9.0 15.0 0.00 0.00 0.00 53 1015.2
20260509145618 66 23 7.0 13.0 0.00 0.00 0.00 53 1015.0
20260509144640 66 23 9.0 17.0 0.00 0.00 0.00 54 1015.1
20260509143649 66 23 8.0 18.0 0.00 0.00 0.00 55 1015.1
20260509142629 67 338 9.0 15.0 0.00 0.00 0.00 55 1015.1
20260509141619 67 23 12.0 22.0 0.00 0.00 0.00 54 1015.4
20260509140619 67 23 7.0 12.0 0.00 0.00 0.00 53 1015.2
20260509135649 68 23 8.0 14.0 0.00 0.00 0.00 53 1015.2
20260509134619 68 23 5.0 11.0 0.00 0.00 0.00 52 1015.4
20260509133639 69 0 8.0 15.0 0.00 0.00 0.00 52 1015.4
20260509132639 70 45 9.0 19.0 0.00 0.00 0.00 50 1015.4
20260509131650 70 23 6.0 12.0 0.00 0.00 0.00 52 1015.4
20260509130620 69 23 8.0 14.0 0.00 0.00 0.00 52 1015.4
20260509125651 70 45 6.0 12.0 0.00 0.00 0.00 50 1015.4
20260509124639 70 45 11.0 19.0 0.00 0.00 0.00 49 1015.4
20260509123640 71 0 10.0 17.0 0.00 0.00 0.00 52 1015.6
20260509122629 71 0 8.0 13.0 0.00 0.00 0.00 52 1015.7
20260509121640 70 338 7.0 14.0 0.00 0.00 0.00 52 1015.8
20260509120618 70 45 7.0 13.0 0.00 0.00 0.00 50 1015.9
20260509115618 70 23 7.0 14.0 0.00 0.00 0.00 51 1015.9
20260509114629 70 0 8.0 14.0 0.00 0.00 0.00 50 1016.0
20260509113619 70 23 10.0 14.0 0.00 0.00 0.00 49 1016.2
20260509112618 70 45 4.0 8.0 0.00 0.00 0.00 50 1016.3
20260509111629 71 45 6.0 11.0 0.00 0.00 0.00 49 1016.5
20260509110621 73 23 7.0 10.0 0.00 0.00 0.00 45 1016.5
20260509105618 71 68 4.0 7.0 0.00 0.00 0.00 47 1016.5
20260509104640 70 23 5.0 11.0 0.00 0.00 0.00 48 1016.6
20260509103631 71 23 5.0 11.0 0.00 0.00 0.00 48 1016.8
20260509102618 69 90 6.0 11.0 0.00 0.00 0.00 48 1016.7
20260509101640 69 338 3.0 4.0 0.00 0.00 0.00 51 1016.7
20260509100639 69 45 7.0 11.0 0.00 0.00 0.00 49 1016.8
20260509095618 69 45 8.0 11.0 0.00 0.00 0.00 48 1016.8
20260509094631 68 158 3.0 5.0 0.00 0.00 0.00 51 1016.9
20260509093619 68 45 7.0 11.0 0.00 0.00 0.00 50 1016.9
20260509092618 68 23 7.0 12.0 0.00 0.00 0.00 51 1017.0
20260509091631 68 90 6.0 10.0 0.00 0.00 0.00 52 1017.0
20260509090631 67 45 5.0 11.0 0.00 0.00 0.00 52 1017.0
20260509085620 66 45 3.0 5.0 0.00 0.00 0.00 56 1017.0
20260509084650 66 45 4.0 6.0 0.00 0.00 0.00 56 1017.0
20260509083620 65 90 3.0 6.0 0.00 0.00 0.00 59 1017.0
20260509082620 65 45 4.0 5.0 0.00 0.00 0.00 60 1017.0
20260509081700 64 68 1.0 3.0 0.00 0.00 0.00 63 1017.1
20260509080630 64 0 4.0 8.0 0.00 0.00 0.00 64 1017.2
20260509075639 62 113 2.0 4.0 0.00 0.00 0.00 65 1017.1
20260509074620 62 45 4.0 7.0 0.00 0.00 0.00 66 1017.1
20260509073620 61 23 2.0 4.0 0.00 0.00 0.00 68 1017.2
20260509072620 60 45 2.0 3.0 0.00 0.00 0.00 68 1017.2
20260509071620 59 23 3.0 4.0 0.00 0.00 0.00 71 1017.2
20260509070641 58 23 3.0 5.0 0.00 0.00 0.00 71 1017.2
20260509065639 57 23 3.0 5.0 0.00 0.00 0.00 74 1017.2
20260509064620 55 113 3.0 7.0 0.00 0.00 0.00 76 1017.2
20260509063817 54 45 2.0 3.0 0.00 0.00 0.00 78 1017.2
20260509062620 53 23 3.0 4.0 0.00 0.00 0.00 79 1017.2
20260509061620 52 45 1.0 3.0 0.00 0.00 0.00 81 1017.2
20260509060620 51 0.0 0.0 0.00 0.00 0.00 81 1017.2
20260509055619 50 68 1.0 2.0 0.00 0.00 0.00 82 1017.1
20260509054620 50 45 1.0 2.0 0.00 0.00 0.00 83 1017.1
20260509053620 49 0.0 2.0 0.00 0.00 0.00 84 1017.1
20260509052620 49 45 1.0 1.0 0.00 0.00 0.00 85 1017.0
20260509051620 48 0.0 1.0 0.00 0.00 0.00 85 1016.9
20260509050631 48 68 1.0 2.0 0.00 0.00 0.00 86 1017.0
20260509045620 48 0.0 0.0 0.00 0.00 0.00 86 1016.9
20260509044640 48 90 1.0 2.0 0.00 0.00 0.00 86 1016.9
20260509043620 48 45 1.0 2.0 0.00 0.00 0.00 86 1016.8
20260509042619 48 68 1.0 2.0 0.00 0.00 0.00 86 1016.7
20260509041619 48 0.0 1.0 0.00 0.00 0.00 86 1016.6
20260509040620 48 113 1.0 3.0 0.00 0.00 0.00 87 1016.8
20260509035630 48 45 1.0 3.0 0.00 0.00 0.00 87 1016.8
20260509034620 48 0 1.0 2.0 0.00 0.00 0.00 86 1016.9
20260509033651 48 45 1.0 2.0 0.00 0.00 0.00 86 1016.9
20260509032630 48 68 2.0 4.0 0.00 0.00 0.00 86 1017.0
20260509031619 48 23 2.0 3.0 0.00 0.00 0.00 86 1017.1
20260509030652 48 23 2.0 3.0 0.00 0.00 0.00 86 1017.0
20260509025630 48 23 2.0 6.0 0.00 0.00 0.00 86 1017.0
20260509024619 48 23 2.0 3.0 0.00 0.00 0.00 86 1017.1
20260509023620 48 23 2.0 3.0 0.00 0.00 0.00 86 1017.0
20260509022630 48 23 2.0 3.0 0.00 0.00 0.00 86 1017.0
20260509021630 48 23 4.0 5.0 0.00 0.00 0.00 86 1016.9
20260509020630 49 0 1.0 2.0 0.00 0.00 0.00 86 1016.9
20260509015630 49 23 2.0 3.0 0.00 0.00 0.00 85 1017.0
20260509014630 49 23 1.0 3.0 0.00 0.00 0.00 85 1017.0
20260509013619 49 0.0 0.0 0.00 0.00 0.00 85 1017.1
20260509012619 49 23 1.0 2.0 0.00 0.00 0.00 85 1017.2
20260509011650 49 23 2.0 2.0 0.00 0.00 0.00 85 1017.2
20260509010650 49 23 2.0 3.0 0.00 0.00 0.00 85 1017.2
20260509005630 50 23 1.0 3.0 0.00 0.00 0.00 84 1017.2
20260509004650 50 45 2.0 3.0 0.00 0.00 0.00 84 1017.1
20260509003619 50 0 2.0 4.0 0.00 0.00 0.00 84 1017.1
20260509002619 50 23 2.0 3.0 0.00 0.00 0.00 84 1017.1
20260509001619 50 0 2.0 2.0 0.00 0.00 0.00 84 1017.1
20260509000619 50 0 1.0 2.0 0.00 0.00 0.00 83 1017.1
20260508235640 51 68 1.0 3.0 0.00 0.00 0.00 83 1017.1
20260508234620 51 45 1.0 3.0 0.00 0.00 0.00 83 1017.0
20260508233630 51 45 1.0 2.0 0.00 0.00 0.00 82 1017.1
20260508232640 51 23 1.0 2.0 0.00 0.00 0.00 82 1017.2
20260508231640 52 45 1.0 2.0 0.00 0.00 0.00 82 1017.2
20260508230620 52 45 1.0 2.0 0.00 0.00 0.00 81 1017.3
20260508225619 52 68 2.0 4.0 0.00 0.00 0.00 81 1017.4
20260508224630 52 23 2.0 4.0 0.00 0.00 0.00 81 1017.4
20260508223619 53 45 2.0 3.0 0.00 0.00 0.00 80 1017.3
20260508222630 53 68 2.0 3.0 0.00 0.00 0.00 80 1017.5
20260508221630 53 45 2.0 3.0 0.00 0.00 0.00 79 1017.3
20260508220620 54 68 2.0 3.0 0.00 0.00 0.00 79 1017.3
20260508215619 54 0 1.0 2.0 0.00 0.00 0.00 79 1017.3
20260508214639 54 45 2.0 3.0 0.00 0.00 0.00 78 1017.3
20260508213630 54 45 2.0 3.0 0.00 0.00 0.00 78 1017.2
20260508212620 54 90 3.0 7.0 0.00 0.00 0.00 78 1017.2